Location: Sagn�
(15.2046°N, 12.7898°W)
Time: 13:10:53
(UTC+00:00)

SL-08 ROCKET BODY - Pass Details

Date: 08 May 2021
Orbit: 896 x 964 km, 82.9° (Epoch: 14 June)

Event Time Altitude Azimuth Distance (km) Brightness Sun altitude
Rises 21:09:39 0° 359° (N) 3,514 7.8 -27.2°
Reaches altitude 10° 21:12:07 10° 1° (N) 2,568 7.0 -27.7°
Enters shadow 21:17:01 61° 31° (NNE) 1,009 4.5 -28.7°
